Cozieni, Romania

9:27 PM EET on January 22, 2018 (GMT +0200)
Cozieni

Weather History for 15420 - March, 2010

Change the Weather History Date:

Friday, March 19, 2010

  Actual Average Record
Temperature  
Mean Temperature 42 °F -  
Max Temperature 58 °F 59 °F - ()
Min Temperature 25 °F 39 °F - ()
Degree Days  
Heating Degree Days 24    
Moisture  
Dew Point 30 °F    
Average Humidity 59    
Maximum Humidity 99    
Minimum Humidity 15    
Precipitation  
Precipitation 0.00 in 0.06 in - ()
Sea Level Pressure  
Sea Level Pressure 30.44 in    
Wind  
Wind Speed 2 mph ()    
Max Wind Speed 10 mph    
Max Gust Speed -    
Visibility 5.7 miles    
Events      
T = Trace of Precipitation, MM = Missing Value Source: Averaged Metar Reports

Daily Weather History Graph

Daily Weather History Graph

Search for Another Location

Airport or City:

Trip Planner

Search our weather history database for the weather conditions in past years. The results will help you decide how hot, cold, wet, or windy it might be!

Date:

Astronomy

Mar. 19, 2010 Rise Set
Actual Time 6:21 AM EET 6:26 PM EET
Civil Twilight 5:52 AM EET 6:55 PM EET
Nautical Twilight 5:18 AM EET 7:29 PM EET
Astronomical Twilight 4:43 AM EET 8:04 PM EET
Moon 7:24 AM EET (3/19) 10:37 PM EET (3/19)
Length of Visible Light 13h 03m
Length of Day
12h 05m
Waxing Crescent, 12% of the Moon is Illuminated
Mar 19
Waxing Crescent
Mar 23
First Quarter
Mar 30
Full
Apr 6
Last Quarter
Apr 14
New

Hourly Weather History & Observations

Time (EET) Temp. Windchill Dew Point Humidity Pressure Visibility Wind Dir Wind Speed Gust Speed Precip Events Conditions
12:00 AM 32 °F - 28 °F 81% 30.44 in 6 mi NW 2.2 mph - -  
12:00 AM 39.2 °F - 33.8 °F 81% 30.42 in - Calm Calm - N/A   Clear
12:30 AM 37.4 °F - 32.0 °F 81% 30.42 in - Calm Calm - N/A   Clear
1:00 AM 29 °F - 28 °F 94% 30.45 in 6 mi Calm Calm - -  
1:00 AM 35.6 °F - 32.0 °F 87% 30.42 in - Calm Calm - N/A   Clear
1:30 AM 35.6 °F - 32.0 °F 87% 30.42 in - Calm Calm - N/A   Clear
2:00 AM 28 °F - 28 °F 99% 30.46 in 6 mi Calm Calm - -  
2:00 AM 35.6 °F - 33.8 °F 93% 30.42 in - West 2.3 mph - N/A   Clear
2:30 AM 33.8 °F 30.8 °F 32.0 °F 93% 30.42 in - WNW 3.5 mph - N/A   Clear
3:00 AM 28 °F - 28 °F 98% 30.46 in 6 mi WNW 2.2 mph - -  
3:00 AM 33.8 °F - 32.0 °F 93% 30.42 in - WSW 1.2 mph - N/A   Clear
3:30 AM 33.8 °F - 32.0 °F 93% 30.45 in - WNW 1.2 mph - N/A   Clear
4:00 AM 28 °F - 28 °F 97% 30.47 in 6 mi Calm Calm - -  
4:00 AM 33.8 °F - 30.2 °F 87% 30.45 in - Variable 1.2 mph - N/A   Clear
4:30 AM 32.0 °F 28.7 °F 30.2 °F 93% 30.45 in - NNW 3.5 mph - N/A   Clear
5:00 AM 27 °F - 27 °F 98% 30.48 in 6 mi North 2.2 mph - -  
5:00 AM 33.8 °F - 30.2 °F 87% 30.45 in - NW 2.3 mph - N/A   Clear
5:30 AM 32.0 °F - 30.2 °F 93% 30.45 in - Calm Calm - N/A   Clear
6:00 AM 26 °F - 26 °F 98% 30.48 in 6 mi North 2.2 mph - -  
6:00 AM 33.8 °F - 30.2 °F 87% 30.45 in - Calm Calm - N/A   Clear
6:30 AM 33.8 °F - 30.2 °F 87% 30.48 in - Variable 1.2 mph - N/A   Clear
7:00 AM 27 °F - 27 °F 98% 30.50 in 6 mi NNW 2.2 mph - -  
7:00 AM 33.8 °F - 30.2 °F 87% 30.48 in - Variable 1.2 mph - N/A   Clear
7:30 AM 37.4 °F - 30.2 °F 75% 30.48 in - Calm Calm - N/A   Clear
8:00 AM 33 °F - 33 °F 99% 30.51 in 6 mi North 2.2 mph - -  
8:00 AM 39.2 °F - 32.0 °F 75% 30.48 in 3.1 mi Variable 1.2 mph - N/A   Mist
8:30 AM 42.8 °F - 33.8 °F 70% 30.48 in 2.5 mi Variable 1.2 mph - N/A   Mist
9:00 AM 45 °F - 29 °F 40% 30.51 in 6 mi NW 2.2 mph - -  
9:00 AM 46.4 °F - 32.0 °F 57% 30.48 in 5.0 mi Variable 1.2 mph - N/A   Unknown
9:30 AM 48.2 °F - 32.0 °F 54% 30.51 in - Variable 2.3 mph - N/A   Clear
10:00 AM 51 °F - 27 °F 26% 30.52 in 6 mi West 2.2 mph - -  
10:00 AM 50.0 °F - 32.0 °F 50% 30.48 in - Variable 2.3 mph - N/A   Clear
10:30 AM 51.8 °F - 32.0 °F 47% 30.48 in - Variable 2.3 mph - N/A   Clear
11:00 AM 54 °F - 25 °F 21% 30.51 in 6 mi SSW 2.2 mph - -  
11:00 AM 53.6 °F - 30.2 °F 41% 30.48 in - Variable 2.3 mph - N/A   Clear
11:30 AM 55.4 °F - 30.2 °F 38% 30.48 in - WSW 4.6 mph - N/A   Clear
12:00 PM 55 °F - 24 °F 18% 30.51 in 6 mi WSW 4.5 mph - -  
12:00 PM 55.4 °F - 30.2 °F 38% 30.48 in - Variable 3.5 mph - N/A   Clear
12:30 PM 57.2 °F - 30.2 °F 36% 30.48 in - SW 5.8 mph - N/A   Clear
1:00 PM 56 °F - 23 °F 16% 30.49 in 6 mi WSW 6.7 mph - -  
1:00 PM 57.2 °F - 30.2 °F 36% 30.45 in - SW 6.9 mph - N/A   Clear
1:30 PM 57.2 °F - 30.2 °F 36% 30.45 in - WSW 6.9 mph - N/A   Clear
2:00 PM 57 °F - 24 °F 17% 30.47 in 6 mi WSW 6.7 mph - -  
2:00 PM 57.2 °F - 30.2 °F 36% 30.45 in - West 5.8 mph - N/A   Clear
2:30 PM 59.0 °F - 28.4 °F 31% 30.42 in - SW 8.1 mph - N/A   Clear
3:00 PM 58 °F - 23 °F 15% 30.45 in 6 mi SW 6.7 mph - -  
3:00 PM 59.0 °F - 28.4 °F 31% 30.42 in - WSW 8.1 mph - N/A   Clear
3:30 PM 59.0 °F - 28.4 °F 31% 30.42 in - WSW 9.2 mph - N/A   Clear
4:00 PM 58 °F - 23 °F 15% 30.44 in 6 mi SW 6.7 mph - -  
4:00 PM 59.0 °F - 28.4 °F 31% 30.42 in - West 9.2 mph - N/A   Clear
4:30 PM 59.0 °F - 30.2 °F 34% 30.39 in - WSW 8.1 mph - N/A   Clear
5:00 PM 57 °F - 23 °F 16% 30.42 in 6 mi SW 8.9 mph - -  
5:00 PM 59.0 °F - 30.2 °F 34% 30.39 in - West 10.4 mph - N/A   Clear
5:30 PM 57.2 °F - 30.2 °F 36% 30.39 in - WSW 9.2 mph - N/A   Clear
6:00 PM 56 °F - 23 °F 17% 30.42 in 6 mi WSW 4.5 mph - -  
6:00 PM 57.2 °F - 30.2 °F 36% 30.39 in - West 8.1 mph - N/A   Clear
6:30 PM 55.4 °F - 32.0 °F 41% 30.39 in - West 4.6 mph - N/A   Clear
7:00 PM 51 °F - 23 °F 21% 30.41 in 6 mi WSW 4.5 mph - -  
7:00 PM 53.6 °F - 32.0 °F 44% 30.39 in - WSW 2.3 mph - N/A   Clear
7:30 PM 53.6 °F - 33.8 °F 47% 30.39 in - West 1.2 mph - N/A   Clear
8:00 PM 40 °F - 26 °F 46% 30.43 in 6 mi WSW 2.2 mph - -  
8:00 PM 51.8 °F - 33.8 °F 50% 30.39 in - Calm Calm - N/A   Clear
8:30 PM 51.8 °F - 33.8 °F 50% 30.39 in - Calm Calm - N/A   Clear
9:00 PM 37 °F - 30 °F 67% 30.42 in 6 mi Calm Calm - -  
9:00 PM 50.0 °F - 33.8 °F 54% 30.39 in - Calm Calm - N/A   Clear
9:30 PM 48.2 °F - 33.8 °F 58% 30.39 in - Calm Calm - N/A   Clear
10:00 PM 35 °F - 31 °F 79% 30.42 in 6 mi Calm Calm - -  
10:00 PM 48.2 °F - 33.8 °F 58% 30.39 in - Calm Calm - N/A   Clear
10:30 PM 46.4 °F - 33.8 °F 62% 30.36 in - Calm Calm - N/A   Clear
11:00 PM 33 °F - 30 °F 82% 30.42 in 6 mi Calm Calm - -  
11:00 PM 42.8 °F - 33.8 °F 70% 30.36 in - Calm Calm - N/A   Clear
11:30 PM 42.8 °F - 33.8 °F 70% 30.36 in - Calm Calm - N/A   Clear